TimeCST,TemperatureF,Dew PointF,Humidity,Sea Level PressureIn,VisibilityMPH,Wind Direction,Wind SpeedMPH,Gust SpeedMPH,PrecipitationIn,Events,Conditions,WindDirDegrees,DateUTC
12:15 AM,51.8,48.2,88,30.20,10.0,SSE,6.9,-,N/A,,Clear,160,2012-12-02 06:15:00
12:35 AM,51.8,48.2,88,30.20,10.0,SSE,5.8,-,N/A,,Clear,150,2012-12-02 06:35:00
12:55 AM,50.0,46.4,87,30.20,10.0,SE,5.8,-,N/A,,Clear,140,2012-12-02 06:55:00
1:15 AM,50.0,46.4,87,30.20,10.0,SSE,6.9,-,N/A,,Clear,150,2012-12-02 07:15:00
1:35 AM,50.0,46.4,87,30.21,10.0,SSE,6.9,-,N/A,,Clear,160,2012-12-02 07:35:00
1:55 AM,51.8,48.2,88,30.21,10.0,SSE,8.1,-,N/A,,Mostly Cloudy,160,2012-12-02 07:55:00
2:15 AM,53.6,50.0,88,30.21,10.0,SSE,6.9,-,N/A,,Overcast,160,2012-12-02 08:15:00
2:35 AM,55.4,50.0,82,30.21,10.0,SSE,8.1,-,N/A,,Overcast,160,2012-12-02 08:35:00
2:55 AM,55.4,50.0,82,30.21,10.0,South,8.1,-,N/A,,Mostly Cloudy,170,2012-12-02 08:55:00
3:15 AM,55.4,50.0,82,30.21,10.0,SSE,6.9,-,N/A,,Mostly Cloudy,160,2012-12-02 09:15:00
3:35 AM,55.4,50.0,82,30.21,10.0,SSE,5.8,-,N/A,,Mostly Cloudy,150,2012-12-02 09:35:00
3:55 AM,55.4,50.0,82,30.21,10.0,SSE,4.6,-,N/A,,Overcast,160,2012-12-02 09:55:00
4:15 AM,55.4,50.0,82,30.21,10.0,SSE,6.9,-,N/A,,Overcast,160,2012-12-02 10:15:00
4:35 AM,55.4,51.8,88,30.21,10.0,South,6.9,-,N/A,,Overcast,170,2012-12-02 10:35:00
4:55 AM,55.4,51.8,88,30.21,10.0,South,6.9,-,N/A,,Overcast,170,2012-12-02 10:55:00
5:15 AM,57.2,51.8,82,30.21,10.0,South,8.1,-,N/A,,Overcast,170,2012-12-02 11:15:00
5:35 AM,57.2,53.6,88,30.21,10.0,South,9.2,-,N/A,,Overcast,170,2012-12-02 11:35:00
5:55 AM,57.2,53.6,88,30.22,10.0,SSE,9.2,-,N/A,,Overcast,160,2012-12-02 11:55:00
6:15 AM,57.2,53.6,88,30.22,10.0,South,8.1,-,N/A,,Overcast,170,2012-12-02 12:15:00
6:35 AM,57.2,53.6,88,30.23,10.0,SSE,10.4,-,N/A,,Overcast,160,2012-12-02 12:35:00
6:55 AM,57.2,53.6,88,30.23,10.0,SSE,8.1,-,N/A,,Overcast,160,2012-12-02 12:55:00
7:15 AM,57.2,53.6,88,30.24,10.0,South,6.9,-,N/A,,Overcast,170,2012-12-02 13:15:00
7:35 AM,57.2,53.6,88,30.24,10.0,South,8.1,-,N/A,,Overcast,190,2012-12-02 13:35:00
7:55 AM,59.0,55.4,88,30.24,10.0,South,10.4,-,N/A,,Overcast,170,2012-12-02 13:55:00
8:15 AM,59.0,55.4,88,30.24,10.0,South,10.4,-,N/A,,Overcast,180,2012-12-02 14:15:00
8:35 AM,60.8,55.4,82,30.25,10.0,South,12.7,-,N/A,,Overcast,180,2012-12-02 14:35:00
8:55 AM,62.6,55.4,77,30.25,10.0,South,13.8,17.3,N/A,,Overcast,190,2012-12-02 14:55:00
9:15 AM,62.6,55.4,77,30.26,10.0,South,11.5,19.6,N/A,,Overcast,190,2012-12-02 15:15:00
9:35 AM,62.6,55.4,77,30.26,10.0,South,11.5,-,N/A,,Overcast,180,2012-12-02 15:35:00
10:15 AM,62.6,55.4,77,30.27,10.0,South,10.4,16.1,N/A,,Overcast,180,2012-12-02 16:15:00
10:35 AM,64.4,55.4,73,30.26,10.0,South,9.2,-,N/A,,Overcast,180,2012-12-02 16:35:00
10:55 AM,64.4,55.4,73,30.25,10.0,South,13.8,-,N/A,,Overcast,190,2012-12-02 16:55:00
11:15 AM,64.4,57.2,77,30.24,10.0,South,11.5,-,N/A,,Overcast,190,2012-12-02 17:15:00
11:55 AM,64.4,57.2,77,30.22,10.0,South,11.5,-,N/A,,Overcast,180,2012-12-02 17:55:00
12:15 PM,64.4,57.2,77,30.22,10.0,South,12.7,-,N/A,,Overcast,190,2012-12-02 18:15:00
12:55 PM,66.2,57.2,73,30.21,10.0,South,10.4,-,N/A,,Overcast,170,2012-12-02 18:55:00
1:15 PM,66.2,57.2,73,30.19,10.0,South,8.1,-,N/A,,Overcast,170,2012-12-02 19:15:00
1:35 PM,68.0,57.2,68,30.19,10.0,South,10.4,-,N/A,,Mostly Cloudy,180,2012-12-02 19:35:00
1:55 PM,68.0,57.2,68,30.18,10.0,South,9.2,-,N/A,,Partly Cloudy,170,2012-12-02 19:55:00
2:15 PM,68.0,57.2,68,30.18,10.0,SSW,8.1,-,N/A,,Scattered Clouds,200,2012-12-02 20:15:00
2:35 PM,68.0,57.2,68,30.17,10.0,South,9.2,-,N/A,,Mostly Cloudy,190,2012-12-02 20:35:00
2:55 PM,69.8,57.2,64,30.17,10.0,South,6.9,-,N/A,,Overcast,170,2012-12-02 20:55:00
3:15 PM,69.8,57.2,64,30.16,10.0,South,10.4,-,N/A,,Scattered Clouds,170,2012-12-02 21:15:00
3:35 PM,69.8,57.2,64,30.16,10.0,South,9.2,-,N/A,,Clear,170,2012-12-02 21:35:00
3:55 PM,68.0,57.2,68,30.17,10.0,South,5.8,-,N/A,,Clear,170,2012-12-02 21:55:00
4:15 PM,66.2,57.2,73,30.17,10.0,South,4.6,-,N/A,,Scattered Clouds,170,2012-12-02 22:15:00
4:55 PM,64.4,55.4,73,30.17,10.0,SSE,5.8,-,N/A,,Partly Cloudy,160,2012-12-02 22:55:00
5:15 PM,62.6,55.4,77,30.17,10.0,SE,5.8,-,N/A,,Clear,140,2012-12-02 23:15:00
5:35 PM,62.6,55.4,77,30.17,10.0,South,4.6,-,N/A,,Clear,170,2012-12-02 23:35:00
6:15 PM,62.6,55.4,77,30.17,10.0,South,6.9,-,N/A,,Scattered Clouds,180,2012-12-03 00:15:00
6:35 PM,62.6,55.4,77,30.17,10.0,South,6.9,-,N/A,,Partly Cloudy,170,2012-12-03 00:35:00
6:55 PM,62.6,55.4,77,30.18,10.0,South,6.9,-,N/A,,Partly Cloudy,180,2012-12-03 00:55:00
7:15 PM,62.6,55.4,77,30.18,10.0,South,6.9,-,N/A,,Partly Cloudy,180,2012-12-03 01:15:00
7:55 PM,62.6,55.4,77,30.18,10.0,South,6.9,-,N/A,,Mostly Cloudy,190,2012-12-03 01:55:00
8:15 PM,62.6,55.4,77,30.18,10.0,South,6.9,-,N/A,,Mostly Cloudy,190,2012-12-03 02:15:00
8:35 PM,62.6,55.4,77,30.18,10.0,South,6.9,-,N/A,,Clear,180,2012-12-03 02:35:00
8:55 PM,62.6,55.4,77,30.18,10.0,South,6.9,-,N/A,,Clear,180,2012-12-03 02:55:00
9:15 PM,62.6,55.4,77,30.18,10.0,South,8.1,-,N/A,,Clear,190,2012-12-03 03:15:00
9:35 PM,62.6,55.4,77,30.18,10.0,SSW,5.8,-,N/A,,Scattered Clouds,200,2012-12-03 03:35:00
9:55 PM,62.6,55.4,77,30.19,10.0,South,5.8,-,N/A,,Overcast,180,2012-12-03 03:55:00
10:15 PM,60.8,55.4,82,30.19,10.0,South,5.8,-,N/A,,Mostly Cloudy,180,2012-12-03 04:15:00
10:35 PM,59.0,53.6,82,30.19,10.0,South,6.9,-,N/A,,Partly Cloudy,170,2012-12-03 04:35:00
10:55 PM,57.2,53.6,88,30.19,10.0,SSE,4.6,-,N/A,,Clear,150,2012-12-03 04:55:00
11:15 PM,57.2,53.6,88,30.20,10.0,SSE,4.6,-,N/A,,Clear,150,2012-12-03 05:15:00
11:35 PM,55.4,53.6,94,30.20,10.0,SE,5.8,-,N/A,,Clear,130,2012-12-03 05:35:00
11:55 PM,55.4,53.6,94,30.20,10.0,SE,4.6,-,N/A,,Clear,140,2012-12-03 05:55:00